Voltar ao catálogo

THORAD AGENA D DEB

AtivoPO
NORAD 5349·DEBRIS·🇺🇸 United States

Lançado Apr 8, 1970 de Vandenberg Space Force Base

Loading…

Próximas Passagens (próximas 24 horas)

TLE

AtualizadoSource: Space-Track

Época: Sep 14, 2026, 09:35 UTC

1 05349U 70025KN  26257.39957265  .00003208  00000-0  13572-2 0  9996
2 05349  99.8054 150.0382 0052096 276.8310  82.6940 14.25621368762626

Acompanhe THORAD AGENA D DEB em tempo real com AllMySat

Download on the App Store